Temp
5 5 5 5 5 4 5 5 5 5 4 5 5 5 5 5 4 5 5 5 5 4 4 4 4 4 4 4 4 4 4 4 4 4 4 4 4 4 4 4 4 4 5 5 5 5 5 5 5 5 5 5 6 6 6 6 7 7 7 6 6 6 6 6 6 6 6 7 7 8 8 8 8 8 8 8 9 9 9 9 9 10 10 10 10 10
5 5 5 5 5 5 5 5 5 5 5 5 5 5 5 5 5 5 5 5 5 5 4 4 4 4 4 4 4 4 4 4 4 4 4 4 4 4 4 4 4 4 4 4 4 5 5 5 5 5 5 5 5 6 6 6 6 7 7 7 7 7 7 6 6 6 6 6 7 7 7 8 8 8 8 8 8 8 8 9 9 9 9 9 9 10
4 4 4 5 5 5 5 5 5 5 5 5 5 5 5 5 5 5 5 5 5 5 5 4 4 4 4 4 4 4 4 3 3 4 4 4 4 4 4 4 4 4 4 4 4 4 4 5 5 5 5 5 5 6 6 6 6 6 7 7 7 7 7 7 7 7 7 6 6 6 6 7 7 8 8 8 8 8 8 8 8 8 8 8 9 9
4 4 4 4 5 5 5 5 5 5 5 5 5 5 5 5 5 5 5 5 5 5 5 5 4 4 4 4 4 4 4 4 4 3 3 3 3 4 4 3 4 4 4 4 4 4 4 4 4 4 4 5 5 5 6 6 6 6 6 6 6 7 7 7 7 7 7 7 7 7 6 6 6 7 7 8 8 8 8 8 8 8 8 8 8 8
5 5 4 4 4 5 5 5 5 5 4 4 4 5 5 5 5 5 5 5 5 5 5 5 5 4 4 4 4 5 5 5 4 4 4 3 3 3 3 3 3 3 3 4 4 4 4 4 4 4 4 4 4 5 5 5 6 6 6 6 6 6 6 6 7 7 7 7 7 7 7 7 6 6 6 7 7 7 8 8 8 8 8 8 8 8
5 5 4 4 4 4 5 5 5 4 4 4 4 5 5 5 5 5 5 5 5 5 5 5 5 4 4 4 4 4 5 5 5 4 4 4 4 3 3 3 3 3 3 3 3 3 4 4 4 4 4 4 4 4 4 5 5 5 6 6 6 6 6 6 6 6 6 6 7 7 7 7 7 7 6 6 6 7 7 7 8 8 8 8 8 8
6 5 4 4 4 4 5 4 4 4 4 4 4 5 4 5 5 5 5 5 5 5 5 4 4 4 4 4 4 4 4 4 4 4 4 4 4 4 3 3 3 3 3 3 3 3 3 3 3 3 4 4 4 4 4 4 4 4 5 5 6 6 6 6 6 6 6 6 6 6 6 6 7 7 7 6 6 6 6 6 7 7 7 7 7 8
6 5 4 4 4 4 4 4 4 4 4 4 4 5 5 5 5 5 5 5 5 5 5 4 4 4 4 4 4 4 4 4 4 4 4 4 4 4 4 3 3 3 3 3 3 3 3 3 3 3 3 3 4 4 4 4 4 4 4 4 5 5 6 6 6 6 6 6 6 6 6 6 6 6 6 6 6 6 6 6 6 6 6 6 7 7
6 5 5 4 4 5 5 5 5 4 4 4 4 5 5 5 6 5 5 5 5 5 5 4 4 4 4 4 4 4 4 4 4 4 4 4 4 4 4 3 3 3 3 3 3 3 3 3 3 3 3 3 3 3 4 4 4 4 4 4 4 5 5 5 6 6 6 6 6 6 6 6 6 6 6 6 6 6 6 6 5 5 6 6 6 6
6 6 5 5 5 5 5 6 5 5 5 4 4 4 4 5 5 6 6 5 5 4 4 4 4 4 4 4 4 4 4 4 4 4 4 4 4 4 4 4 3 3 3 3 3 3 3 3 3 3 3 3 3 3 3 3 4 4 4 4 4 4 4 4 5 5 5 6 6 6 6 6 6 6 6 5 5 5 5 5 5 5 5 5 5 5
5 5 5 5 5 5 5 5 5 5 5 4 4 4 4 4 5 5 6 6 5 5 4 4 4 4 4 4 4 4 4 4 3 4 4 4 4 4 3 3 4 4 3 3 3 3 3 3 3 3 3 3 3 3 3 3 3 3 3 3 3 3 4 4 4 4 4 5 5 5 6 6 6 6 6 6 6 5 5 5 5 5 5 5 5 5
6 5 5 5 5 5 5 4 4 4 5 4 5 5 5 4 4 4 5 6 6 5 5 4 4 4 4 4 4 4 3 4 4 3 4 4 4 4 4 3 3 3 3 3 3 3 3 3 3 3 3 3 3 3 3 3 3 3 3 3 3 3 3 3 3 3 3 4 4 4 4 5 5 5 6 6 6 6 5 5 5 5 4 4 4 4
5 5 5 5 5 5 5 5 5 5 5 5 6 6 6 5 4 4 4 5 5 5 4 4 4 4 3 4 4 3 3 3 4 3 4 4 4 4 3 3 3 3 3 3 3 3 3 3 3 3 3 3 3 3 3 3 3 3 3 3 3 3 3 3 3 3 3 3 3 3 3 4 4 4 4 5 5 5 5 5 5 5 5 4 4 4
5 5 5 5 6 6 5 5 6 6 6 6 5 5 5 4 4 4 4 5 5 4 4 4 4 4 3 3 3 3 3 3 3 4 3 3 4 4 3 3 3 3 3 3 3 3 3 3 3 3 3 3 3 3 3 3 3 3 3 3 3 3 3 3 3 3 3 3 3 3 3 3 3 3 4 4 4 4 5 5 5 5 5 5 4 4
5 5 6 6 6 6 6 5 6 6 6 5 5 4 4 4 4 4 5 5 5 4 4 5 5 4 4 3 3 3 3 3 3 4 3 3 3 4 3 3 3 3 3 3 3 3 3 3 3 2 2 2 2 3 3 3 3 3 3 3 3 3 3 3 3 3 3 3 3 3 3 3 3 3 3 3 4 4 4 4 4 5 5 4 4 4
5 5 6 7 7 6 6 5 5 5 5 4 4 4 4 4 4 4 5 5 5 5 5 5 6 6 4 4 3 3 3 3 3 4 4 3 3 3 3 3 3 3 3 3 3 3 3 3 3 2 2 2 2 2 2 2 3 3 3 3 3 3 3 3 3 3 3 3 3 3 3 3 3 3 3 3 3 3 3 4 4 4 4 4 4 4
5 5 6 6 7 6 5 5 4 4 4 4 4 4 4 4 4 4 4 4 4 5 5 5 6 6 6 5 4 3 3 3 3 3 4 3 3 3 3 3 3 3 3 3 3 3 3 3 2 2 2 2 2 2 2 2 2 2 2 2 3 3 2 2 2 2 2 2 2 2 2 3 3 3 3 3 3 3 3 3 3 3 3 3 3 3
4 5 6 6 6 6 5 4 4 4 4 4 4 3 3 3 3 3 3 4 4 4 5 5 5 6 6 6 4 3 3 3 3 3 4 3 3 3 3 3 3 2 2 2 3 3 2 2 2 2 2 2 2 2 2 2 2 2 2 2 2 2 2 2 2 2 2 2 2 2 2 2 2 2 2 2 3 3 3 3 3 3 3 3 3 3
5 5 5 6 6 5 5 4 4 4 4 4 4 4 4 3 3 3 3 3 4 4 4 5 5 5 5 5 4 3 3 3 3 3 4 4 3 2 3 3 2 2 2 2 2 2 2 2 2 2 2 2 2 2 2 2 2 2 2 2 2 2 2 2 2 2 2 2 2 2 2 2 2 2 2 2 2 2 2 2 2 2 2 2 2 2
5 5 5 5 5 5 5 5 4 4 3 3 3 3 4 4 3 3 4 3 3 3 3 4 4 4 4 4 3 3 3 3 2 3 3 3 3 2 2 2 2 3 2 2 2 2 2 2 1 1 2 2 2 2 2 2 2 2 2 2 2 2 2 2 2 2 2 2 2 2 2 2 2 2 2 2 2 2 2 2 2 2 2 2 2 2
6 5 5 5 5 5 5 4 4 3 3 3 3 3 3 3 4 4 4 3 3 3 3 3 4 3 3 3 2 2 3 2 2 2 3 3 3 2 2 2 2 3 3 2 1 1 1 1 1 1 1 1 1 1 2 2 2 2 2 2 2 2 2 2 2 2 2 2 2 2 2 2 2 1 1 1 1 1 1 1 2 2 2 2 2 2
5 5 4 4 4 4 4 3 3 3 3 3 2 3 3 3 3 3 3 3 3 3 3 3 3 2 2 2 2 2 2 2 2 2 3 3 4 3 2 2 2 2 3 2 1 1 1 1 1 1 1 1 1 1 1 1 1 1 2 2 2 2 2 2 2 2 2 2 2 2 2 2 1 1 1 1 1 1 1 1 1 1 1 1 1 2
4 3 3 3 3 3 3 2 2 2 2 2 2 2 2 2 2 2 2 2 2 2 2 2 2 2 2 2 2 2 2 2 2 2 2 3 4 3 2 2 2 2 2 2 1 1 1 1 1 0 0 0 0 0 1 1 1 1 1 1 1 1 1 1 2 2 2 2 2 2 2 1 1 1 1 1 1 1 1 1 1 1 1 1 1 1
2 2 2 2 2 2 2 2 2 2 2 2 2 2 2 2 2 2 2 2 2 1 2 2 2 2 2 2 2 2 2 2 2 1 2 3 4 3 2 1 1 2 2 2 1 1 1 0 0 0 0 0 0 0 0 0 0 1 1 1 1 1 1 1 1 1 1 1 1 1 1 1 1 1 1 1 1 1 1 1 1 1 1 1 1 1
1 1 1 1 1 1 1 1 2 2 2 2 2 2 2 2 2 2 2 2 2 1 1 2 2 3 2 2 2 2 1 1 1 1 1 2 3 3 1 1 1 1 2 1 1 1 1 0 0 -0 -0 -0 -0 -0 -0 0 0 0 0 0 0 0 0 1 1 1 1 1 1 1 1 1 1 1 1 0 0 0 0 0 0 0 0 0 1 1
1 1 1 1 1 1 1 1 1 2 2 1 1 1 1 1 1 1 2 2 1 1 2 2 3 3 3 2 2 2 1 1 1 1 1 2 2 2 1 1 1 1 1 1 1 0 0 0 0 -0 -1 -1 -1 -1 -0 -0 -0 -0 -0 0 0 0 0 0 0 0 0 0 0 0 0 0 0 0 0 0 0 0 0 0 0 0 0 0 1 1
1 1 1 1 1 1 1 1 1 1 1 1 1 1 1 1 1 2 2 2 1 1 2 2 3 3 3 3 3 2 1 1 1 0 0 1 2 2 2 1 0 0 0 1 1 0 0 0 0 -0 -1 -1 -1 -1 -1 -0 -0 -0 -0 -0 -0 -0 -0 -0 -0 -0 -0 -0 -0 -0 -0 -0 -0 -0 -0 -0 -0 -0 -0 -0 -0 -0 0 0 0 1
1 1 1 1 1 1 1 1 1 1 1 1 1 1 1 1 1 2 2 1 1 1 1 2 3 3 3 3 3 2 1 1 0 0 0 0 1 2 1 0 -0 -0 -0 0 0 0 -0 -0 -0 -0 -1 -1 -1 -1 -1 -1 -1 -0 -0 -0 -0 -0 -0 -1 -1 -1 -1 -1 -1 -1 -1 -1 -1 -1 -1 -1 -1 -0 -0 -0 -0 -0 -0 0 0 0
0 0 0 1 1 1 1 1 1 1 1 1 1 1 1 1 1 1 0 0 0 1 1 2 2 2 2 2 2 1 1 1 0 0 0 0 1 1 1 0 -0 -1 -1 -0 0 0 0 -0 -0 -0 -1 -1 -1 -1 -1 -1 -1 -1 -1 -1 -1 -1 -1 -1 -1 -1 -1 -1 -1 -1 -1 -1 -1 -1 -1 -1 -1 -1 -1 -1 -1 -1 -0 -0 -0 -0
0 0 0 0 0 0 0 0 0 0 0 0 0 1 1 1 0 0 -0 -0 -0 0 1 1 1 1 1 1 2 2 2 1 -0 -0 -0 -0 1 1 1 0 -0 -1 -1 -1 1 2 2 1 -0 -1 -1 -1 -1 -1 -1 -1 -1 -1 -1 -1 -1 -1 -2 -1 -1 -1 -1 -1 -1 -1 -1 -1 -1 -1 -1 -1 -1 -1 -1 -1 -1 -1 -1 -1 -0 -0
0 0 0 0 0 0 0 -0 -0 -0 -0 -0 -0 0 0 0 0 0 -0 -0 -1 -0 0 0 1 1 1 1 2 2 3 1 -0 -1 -1 -1 -0 0 0 -0 -0 -1 -2 -1 0 2 2 2 1 -1 -1 -1 -1 -1 -1 -1 -2 -2 -2 -2 -2 -2 -2 -2 -2 -2 -2 -2 -2 -2 -1 -1 -1 -1 -1 -1 -1 -1 -1 -1 -1 -1 -1 -1 -1 -0
-0 -0 -0 -0 -0 -0 -0 -0 -0 -0 -1 -1 -1 -0 -0 -0 -0 0 0 -0 -1 -1 -1 -1 -0 -0 -0 0 1 1 2 0 -1 -1 -1 -1 -1 -1 -1 -1 -1 -1 -2 -2 -1 -0 1 2 1 0 -1 -1 -1 -1 -1 -2 -2 -2 -2 -2 -2 -2 -2 -2 -2 -2 -2 -2 -2 -2 -2 -1 -1 -1 -1 -1 -1 -1 -1 -2 -1 -1 -1 -1 -1 -1
-1 -1 -1 -1 -1 -1 -1 -1 -1 -1 -1 -1 -1 -1 -1 -1 -1 -1 -0 -0 -0 -1 -1 -1 -1 -1 -1 -0 -0 0 0 -0 -1 -1 -2 -2 -1 -1 -1 -1 -1 -1 -1 -2 -2 -1 -0 0 0 -0 -1 -1 -1 -1 -1 -2 -2 -2 -2 -2 -2 -2 -2 -2 -2 -2 -2 -2 -2 -2 -2 -2 -1 -1 -1 -1 -1 -1 -2 -2 -2 -1 -1 -1 -1 -1
-2 -2 -2 -2 -2 -2 -2 -2 -2 -2 -2 -2 -2 -2 -2 -2 -2 -2 -1 -1 -1 -1 -1 -1 -2 -2 -1 -1 -1 -0 -0 -1 -1 -2 -2 -2 -2 -2 -1 -1 -1 -1 -1 -1 -1 -1 -1 -1 -1 -1 -1 -1 -1 -1 -1 -2 -2 -2 -2 -2 -2 -3 -3 -3 -2 -2 -2 -2 -2 -2 -2 -2 -2 -1 -1 -1 -1 -1 -1 -1 -1 -1 -1 -1 -1 -1
-2 -2 -2 -2 -2 -2 -2 -2 -2 -2 -2 -2 -2 -2 -2 -2 -2 -2 -2 -2 -2 -2 -1 -2 -2 -2 -2 -2 -2 -1 -1 -1 -2 -2 -2 -3 -3 -2 -2 -2 -1 -1 -1 -1 -1 -1 -1 -1 -1 -1 -1 -1 -1 -1 -1 -2 -2 -2 -2 -2 -3 -3 -3 -3 -3 -3 -3 -2 -2 -2 -2 -2 -2 -2 -2 -1 -1 -1 -1 -1 -1 -1 -1 -1 -1 -1
-2 -2 -2 -2 -3 -3 -3 -3 -3 -3 -3 -3 -3 -2 -2 -3 -3 -3 -3 -3 -3 -3 -3 -2 -2 -2 -3 -3 -3 -2 -2 -2 -2 -3 -3 -3 -3 -3 -2 -2 -2 -2 -2 -2 -1 -1 -1 -1 -1 -1 -1 -1 -0 -0 -1 -2 -2 -2 -2 -2 -2 -3 -3 -3 -3 -3 -3 -2 -2 -2 -2 -2 -2 -2 -2 -2 -1 -1 -1 -1 -1 -1 -1 -1 -1 -1
-2 -2 -2 -2 -3 -3 -3 -3 -3 -3 -3 -3 -3 -3 -3 -3 -3 -3 -3 -3 -3 -4 -4 -3 -3 -3 -3 -3 -3 -3 -3 -3 -3 -3 -3 -3 -3 -3 -3 -2 -2 -2 -2 -2 -2 -2 -2 -1 -1 -1 -1 -1 -0 -0 -1 -1 -2 -2 -2 -2 -2 -2 -2 -3 -3 -3 -3 -2 -2 -2 -2 -2 -2 -2 -2 -2 -1 -1 -1 -1 -1 -1 -1 -1 -0 -0
-2 -2 -2 -2 -3 -3 -3 -3 -3 -3 -3 -3 -3 -3 -3 -3 -3 -3 -3 -4 -4 -4 -4 -4 -4 -4 -4 -4 -4 -4 -4 -4 -4 -4 -4 -4 -4 -4 -4 -3 -3 -3 -3 -3 -2 -2 -2 -2 -2 -1 -1 -1 -1 -1 -1 -1 -1 -2 -2 -2 -2 -2 -2 -3 -3 -3 -3 -3 -2 -2 -2 -2 -2 -2 -2 -2 -1 -1 -1 -1 -1 -1 -1 -1 -1 -0
-2 -2 -3 -3 -3 -3 -3 -3 -3 -4 -4 -4 -4 -4 -4 -4 -4 -4 -4 -4 -4 -4 -4 -4 -4 -4 -4 -4 -4 -4 -4 -4 -4 -4 -4 -4 -4 -4 -4 -4 -3 -3 -3 -3 -3 -3 -3 -3 -2 -2 -1 -1 -1 -1 -1 -1 -2 -2 -2 -2 -2 -2 -2 -2 -3 -3 -3 -3 -2 -2 -2 -2 -2 -2 -2 -2 -1 -1 -1 -1 -1 -1 -1 -1 -1 -0
-3 -3 -3 -3 -3 -3 -3 -4 -4 -4 -4 -4 -4 -4 -4 -4 -4 -4 -4 -4 -4 -4 -4 -4 -4 -4 -4 -4 -4 -4 -4 -4 -4 -4 -4 -4 -4 -4 -4 -4 -4 -3 -3 -3 -3 -3 -3 -3 -3 -3 -3 -2 -2 -2 -2 -2 -2 -2 -2 -2 -2 -1 -2 -2 -2 -2 -3 -3 -2 -2 -2 -2 -2 -2 -2 -2 -2 -2 -1 -1 -1 -1 -1 -1 -1 -1
-3 -3 -3 -3 -3 -3 -4 -4 -4 -4 -4 -4 -4 -4 -4 -4 -4 -4 -5 -5 -5 -5 -5 -5 -5 -5 -5 -5 -4 -4 -4 -4 -4 -4 -4 -4 -4 -4 -5 -5 -4 -4 -4 -4 -4 -4 -4 -4 -3 -3 -3 -3 -3 -2 -2 -2 -2 -2 -2 -2 -2 -2 -2 -2 -2 -2 -2 -2 -2 -2 -2 -2 -2 -2 -2 -2 -2 -2 -1 -1 -1 -1 -1 -1 -1 -1
-3 -3 -3 -3 -4 -4 -4 -4 -4 -4 -4 -4 -4 -4 -4 -5 -5 -5 -5 -5 -5 -5 -5 -5 -5 -5 -5 -5 -5 -5 -4 -4 -4 -4 -4 -4 -4 -4 -5 -5 -5 -4 -4 -4 -4 -4 -4 -4 -4 -3 -3 -3 -3 -3 -3 -2 -2 -2 -2 -2 -2 -2 -2 -2 -2 -2 -2 -2 -2 -2 -2 -2 -2 -2 -2 -2 -2 -2 -2 -1 -1 -1 -1 -1 -1 -1
-3 -3 -3 -3 -4 -4 -4 -4 -4 -4 -4 -4 -4 -4 -4 -4 -5 -5 -5 -5 -5 -5 -5 -5 -5 -5 -5 -5 -4 -4 -5 -5 -5 -5 -5 -5 -5 -5 -5 -5 -5 -5 -5 -5 -4 -4 -4 -4 -4 -3 -3 -3 -3 -3 -3 -3 -2 -2 -2 -2 -2 -2 -2 -2 -2 -2 -2 -2 -2 -2 -2 -2 -2 -2 -2 -2 -2 -2 -1 -1 -1 -1 -1 -1 -1 -1
-3 -3 -3 -4 -4 -4 -4 -4 -4 -4 -4 -4 -4 -4 -4 -4 -5 -5 -5 -5 -5 -5 -4 -5 -5 -5 -5 -4 -4 -4 -4 -5 -5 -5 -5 -5 -5 -5 -5 -5 -5 -5 -5 -5 -4 -4 -4 -3 -3 -3 -3 -3 -3 -3 -3 -3 -3 -2 -2 -2 -2 -2 -2 -2 -2 -2 -2 -2 -2 -2 -2 -2 -2 -2 -2 -2 -2 -1 -1 -1 -1 -1 -1 -1 -1 -1
-4 -4 -4 -4 -4 -4 -4 -4 -4 -4 -4 -4 -4 -4 -4 -5 -5 -5 -5 -5 -5 -5 -5 -5 -5 -5 -4 -4 -4 -4 -4 -4 -4 -5 -5 -5 -5 -5 -5 -5 -5 -5 -5 -5 -4 -4 -4 -3 -3 -3 -3 -3 -3 -3 -3 -3 -3 -3 -2 -2 -2 -2 -2 -2 -2 -2 -2 -2 -2 -2 -2 -2 -2 -2 -2 -2 -2 -1 -1 -1 -1 -1 -1 -1 -1 -1
-4 -4 -4 -4 -4 -4 -4 -4 -4 -4 -4 -4 -4 -4 -5 -5 -5 -5 -5 -5 -5 -5 -5 -5 -5 -5 -4 -4 -4 -4 -4 -4 -4 -4 -4 -4 -4 -5 -5 -5 -5 -5 -5 -5 -4 -4 -4 -4 -4 -3 -3 -3 -3 -3 -3 -3 -3 -2 -2 -2 -2 -2 -2 -2 -2 -2 -2 -2 -2 -2 -2 -2 -2 -2 -2 -2 -2 -1 -1 -1 -1 -1 -1 -1 -1 -1
-4 -4 -4 -4 -4 -4 -4 -4 -4 -4 -5 -5 -5 -5 -5 -5 -5 -5 -5 -5 -5 -5 -5 -5 -5 -5 -4 -4 -4 -4 -4 -4 -4 -4 -4 -4 -4 -4 -4 -4 -4 -4 -4 -4 -4 -4 -4 -4 -4 -4 -3 -3 -3 -3 -3 -3 -2 -2 -2 -2 -2 -2 -2 -2 -2 -2 -2 -2 -2 -2 -2 -3 -3 -3 -2 -2 -2 -2 -2 -2 -1 -1 -1 -1 -1 -1
-4 -4 -4 -4 -5 -5 -4 -4 -4 -5 -5 -5 -5 -5 -5 -5 -5 -5 -5 -5 -5 -5 -5 -5 -4 -4 -4 -4 -4 -4 -4 -4 -4 -4 -4 -4 -4 -4 -4 -4 -4 -4 -4 -4 -4 -4 -4 -4 -4 -4 -4 -3 -3 -3 -2 -2 -2 -2 -2 -2 -2 -2 -2 -2 -2 -2 -2 -2 -2 -2 -2 -3 -3 -2 -2 -2 -2 -2 -2 -2 -2 -2 -1 -1 -1 -1
-4 -4 -4 -5 -5 -5 -5 -5 -5 -5 -5 -5 -5 -5 -5 -5 -5 -5 -5 -5 -5 -5 -5 -4 -4 -4 -4 -4 -4 -4 -4 -4 -4 -4 -4 -4 -4 -4 -4 -4 -4 -4 -4 -4 -4 -4 -4 -4 -4 -3 -4 -4 -3 -3 -3 -2 -2 -2 -2 -2 -2 -2 -2 -2 -2 -2 -2 -2 -2 -2 -3 -3 -3 -3 -3 -3 -3 -3 -2 -2 -2 -2 -1 -1 -1 -1
-4 -4 -4 -5 -5 -5 -5 -5 -5 -5 -5 -5 -5 -5 -5 -5 -5 -5 -5 -5 -5 -5 -5 -5 -4 -4 -4 -4 -4 -4 -4 -4 -4 -4 -4 -4 -4 -4 -4 -4 -4 -4 -3 -3 -3 -3 -3 -3 -3 -3 -3 -3 -3 -3 -3 -3 -2 -2 -2 -2 -2 -2 -2 -2 -2 -2 -2 -2 -2 -2 -3 -3 -3 -3 -3 -3 -3 -3 -3 -2 -2 -2 -2 -1 -1 -1
-4 -4 -4 -5 -5 -5 -5 -5 -5 -5 -5 -5 -5 -5 -4 -4 -4 -5 -5 -5 -5 -5 -5 -5 -5 -5 -4 -4 -4 -4 -4 -4 -4 -4 -4 -4 -4 -4 -4 -4 -4 -3 -3 -3 -3 -3 -3 -2 -2 -2 -2 -2 -2 -3 -3 -3 -2 -2 -2 -2 -2 -2 -2 -2 -2 -2 -2 -2 -2 -3 -3 -3 -3 -3 -3 -3 -3 -3 -2 -2 -2 -2 -2 -1 -1 -1
Height
768 768 767 767 766 766 765 765 764 764 763 763 762 762 761 760 760 759 759 758 757 756 756 755 754 753 752 750 749 748 748 747 746 745 744 743 742 741 740 738 737 736 735 733 732 731 729 727 726 724 723 722 720 719 718 718 717 715 714 713 711 709 708 706 705 704 703 703 703 703 703 703 703 702 701 700 699 698 697 696 696 695 695 695 695 694
768 767 767 766 766 766 765 765 764 764 763 763 762 762 761 761 760 760 759 758 757 757 756 755 754 754 752 751 750 749 748 748 747 746 745 744 743 742 741 739 738 737 736 735 733 732 731 729 728 726 725 723 722 721 720 719 718 717 716 715 713 712 711 709 708 707 706 705 705 704 704 705 705 705 705 704 703 703 702 700 699 698 698 698 698 698
768 767 767 766 766 765 765 764 764 764 763 763 762 762 761 761 760 760 759 758 758 757 756 756 755 754 753 752 751 750 749 748 747 746 746 745 744 743 741 740 739 738 737 736 735 733 732 731 729 728 727 725 724 723 722 721 720 718 718 716 715 714 713 712 711 710 709 708 708 707 706 706 706 707 708 707 707 706 705 704 703 702 702 702 701 701
767 767 767 766 766 765 765 764 764 764 763 763 762 762 761 761 760 760 759 759 758 757 756 756 755 754 754 752 751 750 749 748 748 747 746 745 744 743 742 741 740 739 738 737 736 734 733 732 731 730 728 727 726 725 723 723 721 720 719 718 718 717 715 715 714 713 713 712 711 710 709 708 708 708 709 709 709 709 708 707 706 706 705 705 705 705
767 766 766 766 765 765 764 764 764 763 763 763 762 762 761 761 760 760 759 759 758 758 757 756 756 755 754 753 752 751 750 749 748 747 747 746 745 744 743 742 741 740 739 738 737 736 734 733 733 732 730 729 728 726 725 724 723 722 721 721 720 719 718 717 716 716 715 715 714 713 713 712 711 711 711 711 711 711 710 710 709 709 708 708 708 708
766 765 765 765 765 764 764 764 764 763 763 762 762 762 761 761 760 760 759 759 758 758 757 756 756 755 754 753 752 751 750 749 749 748 747 746 745 745 744 743 742 741 740 739 738 737 736 735 734 733 732 730 729 728 727 725 724 723 723 723 722 721 720 719 719 718 718 717 716 716 715 715 715 714 713 713 713 712 712 712 712 711 711 711 711 711
765 765 764 764 764 764 764 764 763 763 763 762 762 762 761 761 760 760 759 759 759 758 757 757 756 755 755 754 753 752 751 750 749 748 747 747 746 745 744 744 743 742 741 740 739 738 737 736 735 734 733 732 731 729 728 727 726 725 725 724 723 723 722 721 721 720 720 719 718 718 718 718 717 717 716 716 715 714 714 714 714 714 714 714 714 714
764 764 764 764 764 764 764 763 763 762 762 762 762 762 761 761 761 760 760 759 759 758 758 757 757 756 755 754 753 752 751 750 750 749 748 747 746 745 745 744 743 743 742 741 740 739 738 737 736 735 734 733 732 731 730 729 728 727 727 726 725 724 723 723 723 722 721 721 720 720 719 719 719 719 718 718 718 717 717 717 717 716 716 716 716 716
764 764 764 764 764 764 763 763 762 762 762 762 762 762 761 761 761 760 760 759 759 758 758 757 757 756 756 755 754 753 752 751 750 749 748 748 747 746 745 745 744 743 743 742 741 740 739 738 738 737 736 735 733 733 732 731 730 729 728 727 727 726 725 724 724 723 723 722 722 721 721 721 720 720 720 720 720 719 719 719 719 719 719 719 719 719
764 764 764 763 763 763 763 763 762 762 761 761 761 761 761 761 760 760 760 759 759 758 758 757 757 756 756 755 754 754 753 752 750 749 749 748 747 746 746 745 744 744 743 742 742 741 740 739 739 738 737 736 735 734 733 732 732 731 730 729 728 728 727 726 726 725 724 724 723 723 722 722 722 721 721 721 721 721 721 721 721 721 721 721 722 721
764 764 764 763 763 762 762 762 761 761 760 760 760 760 760 760 760 760 760 759 759 759 758 758 757 756 756 755 754 754 753 752 751 750 749 748 748 747 746 746 745 744 744 743 742 741 741 740 739 738 738 737 736 735 735 734 733 733 732 731 730 729 729 728 727 727 726 725 725 724 724 723 723 722 722 722 722 722 722 723 723 723 723 723 723 723
764 764 763 763 763 762 762 761 761 760 760 760 760 760 760 760 760 760 759 759 759 759 758 758 757 756 756 755 754 754 753 753 752 751 750 749 748 748 747 747 746 745 744 744 743 742 741 741 740 739 738 738 737 737 736 735 735 734 733 733 732 731 730 730 729 728 728 727 726 726 725 725 724 723 723 723 723 723 723 723 723 724 724 724 724 725
763 763 763 763 762 762 761 761 761 760 760 760 760 759 759 759 759 759 759 759 759 759 758 758 757 756 756 755 755 754 754 753 753 752 751 750 749 748 748 747 747 746 745 744 743 743 742 742 741 740 739 739 738 738 737 736 736 735 734 734 733 733 732 731 730 730 729 728 728 727 727 726 725 725 724 724 724 724 724 724 724 724 725 725 725 725
763 763 763 762 762 761 761 761 760 760 759 759 759 759 759 759 759 759 759 759 758 758 758 758 757 756 756 755 755 754 754 754 753 752 751 750 749 748 748 748 747 746 746 745 744 743 743 742 742 741 740 739 739 738 738 737 737 736 735 735 734 733 733 732 732 731 730 729 729 728 728 727 727 726 725 725 725 725 725 725 725 725 725 725 726 726
762 762 762 761 761 761 760 760 760 760 759 759 759 759 758 758 758 758 758 758 758 758 757 757 757 756 755 755 754 754 754 754 753 753 752 751 750 749 748 748 747 747 746 745 744 744 743 743 743 742 741 740 739 739 738 738 737 737 736 735 735 734 734 733 733 732 731 730 730 729 729 728 728 727 727 726 726 726 725 725 725 725 725 726 726 727
761 761 761 760 760 760 760 760 760 759 759 759 759 759 759 759 758 758 758 758 757 757 757 756 756 755 755 754 754 754 754 754 754 753 752 751 750 749 748 748 748 747 746 745 745 744 744 743 743 742 741 741 740 739 739 738 738 737 737 736 735 735 734 733 733 732 732 731 731 730 729 729 728 728 727 727 727 726 726 726 726 726 726 726 727 727
761 761 760 760 760 759 759 759 759 759 759 759 759 759 759 758 758 758 758 758 757 757 757 756 756 755 754 754 754 754 754 754 754 753 753 752 751 750 749 749 748 748 747 746 745 745 744 744 743 743 742 741 740 740 739 738 738 738 737 736 736 735 734 734 733 733 732 732 731 731 730 729 729 728 728 728 727 727 727 727 727 727 727 727 727 728
761 761 760 760 759 759 759 759 759 759 759 759 759 759 758 758 758 758 758 757 757 757 756 756 755 755 754 754 754 754 754 754 754 753 753 752 751 750 749 749 748 748 747 746 746 745 744 744 743 743 742 741 740 740 739 739 738 738 737 737 736 736 735 734 734 733 733 732 732 731 731 730 729 729 728 728 728 728 727 727 727 727 727 728 728 728
760 760 760 760 759 759 759 759 759 759 759 759 759 759 758 758 758 757 757 757 757 757 756 756 755 755 754 754 754 753 753 754 754 753 753 752 751 750 749 749 749 748 748 747 746 745 745 744 743 743 742 741 740 740 739 739 738 738 737 737 736 736 735 734 734 733 733 733 732 732 731 730 730 730 729 729 728 728 728 728 728 728 728 728 728 728
760 760 759 759 759 759 759 759 759 759 759 759 759 759 758 758 758 757 757 757 757 756 756 756 755 755 754 754 754 753 753 753 754 753 753 752 751 750 750 749 749 749 748 747 746 745 745 744 744 743 742 741 740 740 739 739 738 738 737 737 736 736 735 734 734 733 733 733 732 732 731 731 730 730 729 729 729 728 728 728 728 728 728 728 728 728
760 759 759 759 759 759 759 759 759 759 759 759 759 759 758 758 757 757 757 756 756 756 756 755 755 754 754 754 754 753 753 753 754 753 753 752 751 750 750 749 749 749 748 747 746 745 745 744 744 743 742 741 741 740 739 739 738 738 737 736 736 735 735 734 734 733 733 733 732 732 731 731 730 730 730 729 729 729 728 728 728 728 728 728 728 728
760 759 759 759 759 759 759 759 759 759 759 759 759 759 758 758 757 757 757 756 756 756 756 755 755 754 754 754 753 753 753 753 753 754 753 752 751 750 749 749 749 749 748 747 746 745 745 744 743 743 742 741 741 740 739 739 738 738 737 737 736 735 735 734 734 733 733 733 732 731 731 731 730 730 730 730 729 729 729 729 729 728 728 728 728 729
760 759 759 759 759 759 759 759 759 759 759 759 759 759 758 758 757 757 757 756 756 756 756 755 754 754 754 754 753 753 753 753 753 754 753 752 751 750 749 749 749 749 748 747 746 745 745 744 743 743 742 741 740 740 739 738 738 738 737 737 736 736 735 735 734 734 733 733 732 732 731 731 730 730 730 730 729 729 729 729 729 729 729 729 729 729
761 760 760 760 760 759 759 759 759 759 759 759 759 758 758 757 757 757 756 756 756 756 755 755 755 754 754 754 754 753 753 753 753 753 753 752 751 750 749 749 749 749 748 747 746 745 745 744 743 743 742 741 740 740 739 738 738 738 737 736 736 736 735 735 734 734 733 733 733 732 732 731 731 731 730 730 730 730 730 730 729 729 729 729 729 729
761 761 761 761 760 760 759 759 759 759 759 759 759 758 758 757 757 756 756 756 756 756 755 755 755 754 754 754 754 754 753 753 753 753 753 752 751 750 749 749 749 749 748 747 746 745 745 744 743 742 742 741 740 739 739 738 738 738 737 736 736 735 735 735 734 734 733 733 733 733 732 732 732 731 731 731 730 730 730 730 730 730 730 729 729 729
762 762 762 761 761 760 760 760 759 759 759 759 759 758 758 758 757 757 756 756 756 756 756 755 754 754 754 754 754 754 753 753 753 753 753 753 752 750 750 749 749 749 748 747 746 745 745 744 743 743 742 741 740 739 739 738 738 737 737 736 736 735 735 734 734 734 733 733 733 733 732 732 732 732 731 731 731 731 730 730 730 730 730 730 729 729
763 763 762 762 761 761 761 760 760 759 759 759 759 758 758 758 757 757 757 757 756 756 756 756 755 754 753 753 753 753 753 753 753 753 753 753 752 751 750 749 749 748 748 747 746 745 744 744 743 743 742 741 740 739 738 738 738 737 737 736 736 735 735 734 734 733 733 733 733 733 732 732 732 732 731 731 731 731 731 731 730 730 730 730 729 729
764 763 763 762 762 762 761 761 760 760 759 759 758 758 757 757 757 757 757 757 757 757 757 756 755 754 754 753 753 753 753 753 753 752 752 753 752 751 750 749 749 749 748 747 745 744 743 743 743 742 741 741 740 739 739 738 737 737 736 736 735 735 734 734 733 733 733 733 733 732 732 732 732 732 731 731 731 731 731 731 730 730 730 730 730 729
764 764 763 763 763 762 762 761 761 760 760 759 759 758 757 757 757 757 758 758 758 757 757 757 756 755 755 754 754 754 753 753 753 752 752 753 752 751 750 750 749 749 748 747 745 743 743 742 742 741 741 741 740 740 739 738 737 737 736 735 735 734 734 733 733 733 732 732 732 732 732 732 731 731 731 731 731 731 731 731 730 730 730 730 730 729
764 764 764 763 763 762 762 762 761 761 760 760 759 758 757 756 756 756 757 757 758 758 758 757 757 756 756 755 754 753 753 753 753 752 753 753 752 751 751 750 750 749 749 748 746 743 742 741 741 741 740 740 740 740 739 738 738 737 736 735 735 734 733 733 733 732 732 732 732 731 731 731 731 731 731 731 731 731 731 730 730 730 730 730 730 729
765 764 764 764 763 763 762 762 761 761 760 760 759 759 758 757 755 755 755 756 757 758 759 758 758 757 757 756 755 753 752 753 753 753 753 753 753 752 751 751 750 749 749 749 748 745 742 741 740 740 740 740 740 739 739 738 738 737 736 735 735 734 733 733 732 732 732 731 731 731 731 731 731 731 731 730 730 730 730 730 730 730 730 730 730 729
765 764 764 764 763 763 762 762 761 761 761 760 760 759 759 757 756 755 754 755 756 758 759 759 759 758 758 757 756 755 754 754 754 753 754 754 753 752 752 751 751 750 749 749 749 748 745 742 741 741 740 740 740 739 739 738 738 737 736 735 735 734 733 733 732 732 732 731 731 731 730 730 730 730 730 730 730 730 730 730 730 730 730 730 730 729
764 764 764 764 763 763 762 762 761 761 761 760 760 759 759 758 757 756 754 754 755 756 758 759 759 759 758 758 757 757 756 755 754 754 754 754 754 753 752 752 751 750 749 749 749 748 747 744 743 742 741 740 739 739 738 738 737 737 736 735 735 734 733 733 733 732 732 731 731 730 730 730 730 730 730 730 730 730 730 730 730 730 730 730 729 729
764 764 764 764 763 763 762 762 762 761 761 760 759 759 759 758 757 756 755 755 754 755 756 757 758 759 759 758 757 757 756 756 755 754 754 754 754 753 752 752 751 750 750 749 748 747 746 745 744 742 741 740 739 738 738 737 737 736 736 735 734 734 733 733 733 732 732 731 731 731 730 730 730 730 729 729 729 729 729 729 729 729 729 729 729 729
765 764 764 764 763 763 763 762 762 761 761 760 759 759 759 758 758 757 756 755 755 755 755 755 756 757 758 758 758 757 756 756 755 754 754 754 754 754 753 752 751 751 750 749 748 747 746 744 743 743 741 740 739 738 738 737 736 736 735 735 734 734 733 733 733 732 732 731 731 731 730 730 730 729 729 729 729 729 729 729 728 728 728 729 729 729
765 765 764 764 764 763 763 762 762 761 761 760 759 759 759 758 758 757 756 756 756 755 755 755 755 755 756 756 757 756 756 756 755 754 754 754 754 754 754 752 752 751 750 749 748 747 746 744 743 743 742 740 739 738 737 737 736 736 735 734 734 734 733 733 732 732 732 731 731 731 731 730 730 729 729 729 728 728 728 728 728 728 728 728 728 728
765 765 764 764 764 764 763 762 762 761 761 760 759 759 759 758 758 757 756 756 756 756 755 755 755 754 754 754 754 754 754 754 754 754 754 754 754 754 754 753 752 751 751 750 749 748 746 745 743 742 741 740 739 738 737 737 736 736 735 735 734 733 733 733 732 732 731 731 731 731 730 730 730 729 729 728 728 728 728 728 728 728 728 728 727 727
765 765 764 764 764 764 763 762 762 761 760 760 759 759 758 758 757 757 756 756 756 756 755 755 755 754 754 753 753 753 753 753 753 753 753 754 754 754 754 753 752 751 751 750 749 748 747 746 744 743 741 740 739 738 738 737 736 736 735 734 734 733 733 732 732 731 731 731 730 730 730 730 729 729 728 728 728 728 728 728 728 727 727 727 727 727
765 764 764 764 764 763 763 762 762 761 760 760 759 759 758 758 757 757 756 756 755 755 755 755 754 754 753 752 752 751 751 751 751 752 752 753 753 753 753 753 752 751 751 750 749 748 748 746 745 743 742 740 739 738 738 737 736 736 735 734 733 733 733 732 731 731 731 730 730 730 729 729 729 729 728 728 728 728 728 727 727 727 727 726 726 726
765 764 764 764 764 763 763 762 762 761 760 760 759 759 758 758 757 757 756 755 755 754 754 754 753 753 752 751 751 750 749 749 749 750 751 751 752 752 752 752 752 751 751 750 749 748 747 746 745 743 742 741 740 738 738 737 736 736 735 734 733 733 732 732 731 731 730 730 730 729 729 729 729 728 728 728 728 728 727 727 727 726 726 726 726 725
764 764 764 764 763 763 763 762 762 761 760 759 759 758 758 757 757 756 756 755 755 754 754 753 753 752 751 751 750 749 748 748 748 748 749 750 750 751 751 751 751 751 750 750 749 748 747 746 744 743 742 741 740 739 738 737 736 736 735 734 733 733 732 732 731 731 730 729 729 729 729 728 728 728 728 728 727 727 727 726 726 726 725 725 725 725
764 764 764 763 763 762 762 762 761 761 760 759 759 758 758 757 757 757 756 756 755 754 753 753 752 752 751 750 749 749 748 748 747 747 748 748 749 749 750 750 750 750 750 749 748 747 746 745 744 743 742 741 740 739 738 737 736 736 735 734 733 733 732 731 730 730 729 729 729 728 728 728 728 728 727 727 727 726 726 726 725 725 725 724 724 724
764 764 764 763 763 762 762 761 761 760 759 759 759 758 758 757 757 757 756 756 755 754 753 752 752 751 750 750 749 748 748 747 747 747 747 747 748 748 749 749 749 749 749 749 748 747 745 744 743 742 741 740 739 738 738 737 736 735 735 734 733 733 732 731 730 730 729 729 729 728 728 728 728 727 727 726 726 726 725 725 724 724 724 724 723 723
764 764 763 763 762 762 761 761 760 760 759 759 758 758 758 757 757 756 756 755 754 754 753 752 751 751 750 750 749 749 748 748 747 746 746 746 746 747 747 748 748 748 748 748 747 746 745 743 742 741 740 739 739 738 737 736 735 735 734 734 733 733 732 731 730 730 729 729 728 728 728 727 727 726 726 726 725 725 725 724 724 723 723 723 722 722
764 763 763 763 762 762 761 761 760 760 759 759 758 758 758 757 757 756 756 755 754 753 752 752 751 751 750 749 749 749 748 748 747 746 746 745 745 746 746 746 747 747 747 747 746 745 744 743 741 740 739 739 738 737 737 736 735 734 734 733 733 732 731 731 730 729 729 728 728 728 727 727 726 726 725 725 725 724 724 724 723 723 722 722 721 721
763 763 763 762 762 762 761 761 760 760 759 759 758 758 757 757 756 756 755 755 754 753 752 751 751 750 750 749 749 749 748 748 747 746 746 745 745 745 745 745 745 746 746 746 745 744 743 742 741 739 738 738 737 736 736 735 735 734 733 733 732 732 731 730 730 729 728 728 728 727 727 726 726 725 725 724 724 723 723 723 722 722 721 721 720 720
763 763 762 762 762 761 761 760 760 759 759 758 758 757 757 757 756 756 755 754 754 753 752 751 751 750 750 750 749 749 748 748 747 746 745 745 744 744 744 744 744 744 744 744 744 743 742 741 739 738 738 737 736 735 735 734 734 733 733 732 732 731 730 730 729 728 728 728 727 727 726 726 725 725 724 724 723 723 722 722 721 721 720 719 719 718
763 762 762 762 761 761 760 760 759 759 758 758 757 757 756 756 756 755 754 754 753 753 752 751 750 750 749 749 749 748 748 747 746 746 745 744 744 744 744 744 743 743 743 743 742 742 740 739 738 737 737 736 735 734 734 733 733 733 732 732 731 731 730 729 729 728 728 727 727 726 725 725 725 724 724 723 723 722 721 720 720 719 719 718 718 717
762 762 761 761 761 760 760 759 759 758 758 757 757 756 756 755 755 754 754 754 753 752 752 751 750 749 749 748 748 748 747 746 746 745 744 744 743 743 743 743 743 743 742 741 741 740 739 737 736 735 735 734 734 733 733 733 732 732 732 731 731 730 729 729 728 728 727 727 726 725 725 724 724 723 723 723 722 721 720 719 718 718 718 717 717 716
762 761 761 760 760 759 759 759 758 758 757 757 756 755 755 754 754 754 753 753 753 752 751 751 750 749 748 748 747 747 746 745 745 744 743 743 743 743 743 742 742 741 741 740 740 738 737 736 734 733 733 732 732 732 732 732 732 731 731 731 730 729 729 728 728 727 727 726 725 724 724 723 723 722 722 722 721 720 719 718 717 717 716 716 716 715
761 761 760 760 759 759 758 758 758 757 756 756 755 755 754 754 753 753 753 752 752 751 751 750 749 748 748 747 746 746 745 744 744 743 743 743 742 742 742 741 741 741 740 739 739 738 736 735 733 732 731 731 731 731 731 731 731 731 730 730 729 729 728 728 727 726 726 725 724 724 723 722 722 721 721 720 720 719 718 717 716 716 715 715 714 714
Wind_Speed
6 5 4 3 2 1 0 1 2 2 3 4 5 5 5 6 6 6 7 8 9 9 9 10 10 11 13 15 16 17 17 18 19 19 20 20 21 21 22 23 24 24 25 26 26 26 27 27 27 27 27 27 27 27 26 26 26 27 27 28 29 30 31 31 31 32 32 32 32 31 30 30 30 30 30 30 30 30 30 30 30 30 29 28 27 27
7 6 5 4 2 1 1 1 0 2 3 4 5 6 6 7 7 6 7 8 8 9 9 10 10 10 11 13 14 15 15 16 17 18 19 19 20 20 21 21 22 23 23 24 25 25 26 27 27 27 28 28 28 27 27 27 26 26 26 26 27 28 28 29 29 30 31 31 31 31 31 30 29 28 27 27 28 28 28 29 29 30 30 29 29 29
6 6 5 5 4 2 2 1 1 1 3 4 5 6 7 7 7 7 7 8 8 9 9 9 9 10 10 11 12 13 13 14 15 16 17 18 19 19 20 20 21 21 22 23 23 24 24 25 26 26 27 27 28 28 28 27 27 27 26 26 26 26 26 26 27 27 28 29 30 30 31 31 30 29 28 26 26 26 26 27 27 27 28 28 29 29
5 5 6 6 5 3 2 2 1 1 3 4 5 5 6 6 6 7 7 8 8 9 9 8 8 9 9 10 11 11 12 12 13 14 15 16 17 18 18 19 20 20 21 22 22 23 24 24 24 24 25 25 26 26 27 27 28 28 27 27 26 26 26 25 25 25 25 26 27 27 28 29 30 30 29 28 26 26 25 25 26 26 26 26 27 27
6 6 7 6 5 4 4 3 2 2 3 3 4 4 5 5 6 6 7 7 7 8 8 8 8 8 9 9 9 10 10 11 11 12 13 14 15 16 17 18 19 19 20 21 22 22 23 23 23 23 23 24 24 24 25 26 26 27 27 27 27 26 26 25 25 24 24 24 24 25 25 26 27 28 28 28 28 27 26 25 25 25 25 24 24 24
6 6 8 7 6 5 4 3 2 3 3 3 4 4 4 5 5 6 6 7 7 7 7 8 8 8 8 8 9 9 10 10 10 11 11 12 13 14 15 16 17 18 19 20 20 21 22 23 23 23 23 24 24 24 24 24 25 25 25 26 26 26 26 25 25 24 23 23 23 22 23 23 23 24 25 26 27 27 27 26 25 25 24 24 23 23
6 7 9 8 7 6 5 4 3 3 3 4 4 4 4 4 5 6 6 7 7 7 7 7 8 8 8 8 9 9 9 10 10 10 10 11 12 12 13 15 16 17 18 18 19 20 20 21 22 23 23 24 24 24 24 24 24 24 24 24 24 24 24 25 24 24 23 23 22 22 21 21 21 21 21 22 24 25 26 26 26 25 24 24 23 23
5 6 8 7 6 5 5 4 4 3 3 3 3 3 3 3 3 4 5 6 7 7 6 6 6 6 7 8 8 9 9 9 9 10 10 10 11 12 12 13 14 15 16 17 18 18 19 19 20 21 21 22 23 24 24 24 24 24 23 23 23 23 23 23 23 23 23 22 22 21 21 20 20 20 20 20 21 21 23 24 24 24 24 23 23 23
5 5 6 6 5 4 4 4 3 3 4 3 2 3 3 3 3 3 4 5 6 7 6 6 5 5 6 6 7 7 8 9 9 9 10 10 11 11 12 12 13 14 15 16 16 17 17 18 18 19 20 20 21 22 23 23 23 23 23 23 22 22 22 21 21 21 21 21 21 21 20 20 20 20 19 19 19 19 20 21 21 22 22 22 21 21
5 5 5 6 5 5 3 3 2 3 5 4 3 3 3 3 4 3 3 3 4 6 7 6 6 5 5 5 6 6 7 8 8 9 9 9 10 11 12 12 12 13 14 14 15 16 16 17 17 18 18 19 19 20 20 21 22 22 22 22 22 22 21 21 20 20 19 19 19 18 18 18 19 19 19 18 18 18 18 18 19 19 19 19 19 18
6 6 5 5 5 5 5 4 4 4 4 4 3 3 3 2 2 3 4 3 3 4 5 5 6 6 6 5 5 5 5 6 6 7 7 8 9 10 11 11 11 12 13 13 14 15 15 16 16 16 17 17 17 18 18 19 19 19 20 20 20 20 20 20 20 20 19 18 18 17 17 16 16 16 16 17 17 17 17 17 16 16 17 17 17 16
6 6 5 5 4 4 4 5 5 5 4 3 3 3 3 2 1 2 3 3 3 3 3 4 5 5 5 5 4 4 5 5 5 6 6 6 7 8 9 9 10 11 11 12 13 14 14 14 15 15 15 15 15 15 16 16 16 16 17 17 18 18 18 19 19 19 19 18 18 17 17 16 16 15 15 15 15 15 15 15 15 15 15 15 15 14
5 5 5 4 4 4 4 4 4 3 3 3 3 3 2 1 1 2 2 3 3 3 3 3 4 4 5 4 3 3 4 5 5 5 5 6 7 7 7 7 7 8 9 10 11 12 13 13 14 14 13 13 13 13 13 13 13 13 14 14 15 15 15 16 16 17 17 17 17 17 16 16 15 15 15 14 13 13 13 13 13 13 13 13 13 12
6 5 5 5 5 5 4 3 3 3 3 3 2 2 2 3 3 3 3 3 3 3 3 3 3 3 4 4 3 2 3 4 4 4 4 5 6 6 7 6 6 7 7 8 10 11 12 12 12 12 12 12 12 11 11 11 11 11 11 11 12 12 12 13 13 14 14 14 14 14 14 14 14 14 14 13 13 12 12 11 11 10 10 10 10 10
6 6 5 5 5 5 4 3 3 3 3 3 4 5 5 5 4 3 3 3 3 3 4 4 4 3 3 4 4 2 1 3 4 4 3 4 5 5 6 5 5 6 7 7 8 9 10 10 10 11 12 11 11 10 10 10 10 10 10 10 10 10 10 11 11 11 11 11 11 12 12 12 12 12 12 12 12 12 11 11 10 9 9 8 8 8
6 6 6 6 5 4 3 3 3 3 3 4 5 5 4 3 3 3 3 4 4 4 4 5 5 4 2 4 5 4 1 2 3 4 3 4 4 4 5 4 4 5 6 6 7 8 9 9 9 10 10 10 10 9 9 9 9 9 9 9 9 9 9 10 10 10 10 10 10 10 11 11 11 11 11 11 11 11 11 10 9 8 8 7 6 6
5 6 6 5 4 3 2 3 4 4 3 4 5 5 4 4 3 3 4 4 4 4 5 5 4 3 2 2 4 5 3 2 3 4 3 4 4 4 4 4 4 4 5 5 6 6 7 8 8 9 9 9 9 9 9 9 9 9 9 9 9 9 9 9 9 10 10 10 10 11 11 11 11 11 11 11 11 11 10 10 9 8 7 6 5 4
5 6 5 5 4 3 2 2 3 3 4 3 3 4 5 5 5 5 5 5 5 5 5 5 4 4 3 3 3 5 6 3 3 4 4 4 4 5 4 4 3 3 4 4 4 5 6 6 7 8 8 8 8 8 9 9 9 9 9 9 9 9 9 9 9 10 10 10 10 11 11 11 11 11 11 11 11 11 11 10 9 8 7 6 5 4
6 5 5 5 4 3 2 2 2 2 2 2 2 2 3 4 5 5 5 5 5 5 5 5 5 5 5 3 4 6 6 4 3 4 5 4 4 5 5 3 3 3 3 4 4 4 4 5 5 6 8 8 8 8 9 9 9 9 9 9 9 10 10 10 10 10 10 10 10 10 11 11 11 11 12 11 11 11 11 10 10 9 8 7 6 5
6 5 5 4 3 3 2 2 1 1 1 2 2 2 3 3 3 3 3 4 4 4 5 5 5 5 4 3 4 6 7 4 4 5 5 4 4 5 5 4 3 4 3 4 5 5 4 4 5 6 7 8 9 9 9 9 9 10 10 10 10 10 11 11 11 11 11 11 11 10 11 11 11 11 11 11 11 10 10 9 9 8 7 6 6 5
6 5 3 3 3 3 2 1 0 1 2 2 2 3 3 3 3 3 3 3 3 4 4 4 4 3 3 3 4 6 7 5 3 4 5 5 5 5 6 5 4 4 4 5 6 7 6 6 6 7 7 8 9 9 9 9 10 10 10 11 11 11 11 12 12 12 12 12 11 11 11 11 11 11 11 10 10 9 9 8 8 7 7 6 5 5
5 3 3 4 3 1 0 1 1 2 1 1 2 2 3 3 4 4 4 4 3 3 3 3 3 4 5 5 6 7 7 5 4 4 5 6 6 5 6 6 5 5 5 5 7 8 8 7 8 8 9 9 9 9 9 10 10 10 10 11 11 11 12 12 12 12 12 12 12 11 11 11 11 11 10 10 9 9 8 8 7 7 7 6 6 5
1 1 2 3 3 3 2 1 1 1 1 1 1 1 2 3 4 4 4 4 4 4 4 5 6 7 7 6 6 6 7 6 6 5 5 5 6 6 7 7 6 6 6 6 7 9 9 9 9 10 10 9 9 10 10 10 10 11 11 11 11 12 12 12 12 12 11 11 11 11 11 11 11 11 11 10 10 9 9 8 8 7 7 7 7 7
4 4 4 3 3 3 2 1 0 1 1 1 1 2 3 3 4 4 5 6 6 6 7 7 7 6 6 5 5 5 6 7 6 5 4 5 6 6 7 8 7 6 6 7 9 10 10 10 10 11 11 11 11 11 11 11 11 11 11 12 12 12 12 12 11 11 11 10 10 10 10 10 10 10 10 10 10 9 9 9 8 8 8 9 9 9
5 5 4 4 4 3 3 2 1 1 1 2 2 3 3 3 4 4 5 6 6 6 6 6 5 4 3 3 2 3 6 7 6 4 3 5 6 7 7 8 7 6 7 8 10 11 10 9 9 10 11 11 12 12 12 12 12 12 12 12 12 12 12 12 11 11 11 10 10 10 10 9 9 9 10 9 9 9 9 9 9 9 9 10 10 10
5 4 4 4 3 3 3 2 1 1 2 2 3 4 5 5 5 5 5 5 4 4 4 5 6 5 4 3 2 2 4 6 6 5 4 5 6 6 6 7 7 7 8 9 10 10 9 8 8 8 8 9 11 11 12 12 12 13 13 13 13 13 13 12 12 11 11 10 10 9 9 9 9 9 9 9 9 9 9 9 9 9 10 11 11 11
4 3 3 3 3 3 3 3 3 3 3 3 4 4 5 6 5 4 3 3 3 4 4 5 6 6 5 4 3 3 3 5 6 6 5 5 6 6 5 6 7 8 8 9 10 10 9 8 8 7 7 8 9 11 12 12 13 13 14 14 14 14 13 13 12 12 11 10 9 9 8 8 8 8 8 9 9 9 8 8 9 9 10 11 12 11
4 3 3 2 2 2 3 4 5 5 5 5 4 4 4 5 4 4 4 5 5 4 4 5 5 5 5 5 4 4 4 4 5 6 6 5 5 5 5 6 8 9 8 9 10 11 11 10 9 8 7 8 8 9 11 12 13 14 14 15 15 14 13 13 12 12 11 10 9 8 8 8 8 8 8 8 8 8 8 8 9 9 10 10 11 11
1 1 1 2 2 3 4 5 5 6 6 5 5 4 4 4 4 4 5 6 6 5 4 5 5 6 6 7 7 6 5 4 5 7 6 5 5 5 5 6 7 8 8 8 9 9 9 9 8 8 8 7 7 7 9 11 13 13 14 15 14 14 13 13 12 12 11 10 9 9 9 9 9 9 8 8 8 8 7 7 8 8 8 8 8 9
2 2 2 2 3 3 3 4 4 4 5 5 4 4 4 3 3 4 4 6 6 5 5 6 6 6 6 7 7 5 4 2 4 6 6 5 4 5 5 5 6 7 7 7 6 5 5 5 6 6 7 7 8 8 8 9 11 12 13 13 13 12 12 12 12 12 11 10 10 10 10 10 10 10 9 9 8 7 7 7 7 7 6 7 7 8
4 3 3 3 3 3 3 3 3 3 3 3 4 4 3 3 3 3 3 5 6 6 6 6 6 6 6 5 4 3 2 2 4 7 6 4 4 5 5 5 6 6 7 5 3 3 3 3 3 3 5 6 7 8 8 9 10 11 11 11 10 10 10 11 11 11 11 11 11 11 11 11 11 11 10 9 8 7 6 6 6 6 6 7 7 8
5 5 4 4 3 3 2 2 2 2 2 2 3 3 3 3 3 3 3 3 4 5 6 6 7 7 6 5 4 4 4 4 6 9 8 5 5 6 6 6 6 6 6 4 3 3 3 3 3 3 4 5 7 8 9 9 10 10 10 10 9 9 9 10 9 9 9 10 11 11 11 11 11 11 10 10 9 7 6 6 5 5 6 6 7 7
6 5 5 4 3 3 3 2 2 1 1 1 1 2 3 3 3 3 3 3 3 4 4 5 6 7 7 7 7 7 7 6 8 10 10 7 5 6 6 6 6 6 6 5 4 4 5 5 6 7 7 7 7 8 9 9 9 9 9 9 9 9 9 8 7 7 7 8 9 11 11 11 11 10 10 10 9 8 7 7 7 6 6 6 6 7
5 5 4 4 3 3 3 3 2 2 1 1 1 1 2 3 4 4 4 4 3 4 4 3 4 5 7 7 8 8 8 7 8 10 10 8 6 6 7 7 7 7 6 6 5 6 6 7 7 8 8 8 7 7 7 7 8 8 9 10 10 9 8 7 6 6 7 7 8 9 10 10 10 10 10 10 10 10 10 10 10 9 8 7 7 6
4 4 4 3 3 3 3 2 2 2 2 2 2 2 3 3 4 4 4 4 4 4 4 4 4 4 5 6 7 8 8 7 8 10 11 10 8 7 8 8 7 7 7 7 6 6 6 7 7 7 7 8 7 6 6 6 8 9 10 10 9 8 7 6 6 6 7 6 6 6 7 8 9 9 9 9 10 10 11 11 11 11 10 10 8 7
4 3 3 3 4 3 3 3 2 3 3 4 4 4 5 5 5 5 5 5 5 5 4 4 5 5 6 6 7 8 9 8 10 12 13 12 10 9 8 8 8 7 7 7 7 7 7 7 8 8 8 7 7 6 5 6 7 9 9 9 7 7 6 6 7 7 6 6 5 5 6 6 7 8 9 9 10 10 10 11 11 11 11 11 10 10
4 3 3 3 4 3 3 3 3 3 3 4 5 6 6 6 7 7 7 7 6 6 5 5 6 6 7 8 9 10 11 12 13 15 14 13 12 10 8 8 8 8 7 7 8 8 7 8 8 8 7 6 6 5 6 6 7 7 7 7 6 6 6 6 7 7 6 6 5 5 5 6 7 7 8 9 9 9 10 10 10 10 10 10 10 11
4 4 4 3 3 3 3 3 3 4 4 5 5 6 7 7 7 8 8 8 8 8 7 7 7 8 8 9 9 10 11 13 14 14 14 13 13 11 9 9 9 9 8 8 8 8 8 7 7 6 6 6 6 7 7 7 7 7 7 7 7 6 6 6 7 7 6 6 6 6 6 6 7 8 8 9 9 8 8 9 9 9 9 9 10 10
4 4 4 3 3 3 4 4 4 5 6 6 6 7 7 8 8 8 9 10 10 10 10 10 9 9 10 10 10 10 11 12 12 12 12 12 12 11 10 10 10 9 8 8 8 8 8 7 7 6 6 7 7 8 8 8 8 8 8 8 7 6 6 6 6 6 6 6 6 7 7 7 7 7 8 7 7 7 7 8 8 8 8 9 9 9
4 4 4 4 5 5 5 5 6 7 7 7 8 8 8 9 9 10 11 11 11 11 11 11 11 11 11 11 11 11 11 12 12 12 12 12 12 11 11 10 10 10 9 9 9 8 8 8 8 8 8 8 8 9 9 8 8 9 9 8 7 6 5 5 5 5 5 6 7 7 7 7 7 7 7 7 7 7 7 7 8 8 8 8 8 8
4 4 4 6 7 7 7 7 8 8 8 8 9 9 8 9 10 10 11 11 10 10 10 10 10 10 10 11 11 11 12 12 12 12 12 12 12 12 11 10 10 10 10 10 10 9 9 9 10 10 9 9 9 10 10 10 9 9 9 8 8 8 8 7 6 6 6 6 7 7 7 7 7 7 7 7 7 8 8 8 8 8 8 9 9 9
4 4 4 5 6 7 8 9 9 9 9 9 9 8 8 8 9 9 10 9 8 8 9 8 8 8 9 9 10 10 11 12 12 12 13 13 13 13 12 12 11 11 11 11 11 11 11 11 10 10 10 10 9 10 10 10 10 9 9 9 9 9 9 7 6 6 6 7 7 6 6 6 6 7 7 8 8 9 9 9 9 9 9 9 10 10
4 4 5 5 6 8 9 10 10 10 10 10 9 8 8 9 9 9 9 9 8 8 7 7 7 8 8 8 8 9 9 10 11 11 12 13 13 14 14 14 13 13 12 12 12 12 11 11 11 10 10 10 10 10 10 10 10 10 9 9 9 8 6 5 4 5 6 6 6 6 6 6 6 7 8 9 9 10 10 10 11 11 11 11 11 11
5 6 6 7 8 9 10 10 9 9 9 9 9 8 9 9 9 9 9 9 9 8 7 7 7 7 8 8 8 8 8 8 9 9 10 11 12 12 13 13 14 14 14 13 12 12 11 11 10 10 10 9 9 10 10 11 10 10 9 9 8 8 7 7 6 6 6 6 6 5 5 6 7 8 9 9 10 10 10 10 11 12 13 13 13 13
7 7 7 8 8 8 8 8 8 8 8 8 9 9 9 9 9 9 9 9 9 8 7 7 6 6 7 7 7 7 7 7 7 7 7 8 9 10 10 11 12 13 14 14 13 12 11 10 10 9 9 9 9 10 10 11 11 10 10 9 9 9 9 9 8 8 7 6 6 5 5 6 7 9 9 9 9 9 9 9 10 11 12 13 13 14
8 8 8 7 7 7 8 8 8 8 9 9 9 9 9 10 10 10 9 9 8 8 7 7 6 6 6 7 7 7 7 7 6 6 5 6 6 7 8 9 11 12 13 14 14 13 13 12 11 10 9 9 10 10 10 10 10 10 9 9 8 8 8 8 8 7 7 6 5 5 5 7 8 9 9 8 8 8 9 10 10 11 12 13 13 14
7 7 7 7 7 8 8 8 8 8 9 9 10 10 10 10 10 10 9 9 8 8 7 7 6 7 7 7 7 7 7 7 7 6 5 4 5 6 7 9 10 11 12 14 14 14 14 14 14 12 11 10 10 10 10 10 9 9 9 8 8 8 8 8 7 7 6 6 6 5 6 8 8 8 7 8 9 9 10 11 12 12 12 13 13 13
6 6 7 7 8 8 8 8 8 8 8 9 9 9 9 10 9 9 9 8 8 7 6 6 7 7 8 8 8 8 7 8 7 7 6 5 5 5 6 8 9 11 12 13 15 16 16 17 16 15 14 12 10 10 9 9 9 8 8 8 8 8 8 8 7 7 6 6 7 8 9 8 7 7 8 9 10 11 11 11 12 12 12 12 12 12
7 7 7 7 8 8 8 8 8 8 8 8 9 9 9 9 9 9 9 8 8 7 7 7 7 8 8 8 8 8 8 8 8 7 7 6 6 6 7 8 9 10 11 12 13 14 15 16 16 16 15 14 12 10 10 9 8 8 8 8 8 8 8 8 7 7 7 7 8 9 10 10 8 8 8 9 10 11 12 12 11 11 11 11 11 11
8 8 8 8 8 8 8 8 8 8 8 9 9 9 8 9 9 9 8 8 7 7 7 8 8 8 8 8 8 8 8 8 8 7 7 6 6 6 7 8 8 8 8 8 9 9 10 11 12 13 13 13 13 12 11 9 8 8 8 8 8 8 8 8 8 8 7 7 8 10 11 11 11 10 9 9 10 11 12 12 12 11 11 10 10 11
10 10 9 9 8 8 8 8 9 9 9 9 9 9 9 8 8 7 6 6 7 7 8 8 9 9 9 9 9 8 8 8 8 7 7 6 6 6 7 8 7 7 6 6 6 6 6 6 7 8 10 11 10 10 11 9 8 8 8 8 8 8 8 8 9 9 9 9 9 10 11 11 11 10 9 9 9 10 11 11 12 11 11 10 11 11
Wind_Direction
221 216 200 177 155 129 103 106 75 36 14 6 4 10 21 24 24 25 32 39 41 38 35 32 33 37 42 45 44 42 39 38 37 37 37 38 38 38 38 39 40 41 42 43 44 46 48 50 51 53 54 54 56 57 57 57 56 54 52 51 49 49 49 50 50 51 52 53 54 54 53 52 52 52 53 54 55 57 59 61 63 65 66 68 70 73
225 219 210 195 186 195 227 187 90 24 13 5 3 6 12 14 14 18 28 37 43 45 41 37 34 35 40 46 47 44 41 40 39 38 38 37 37 38 38 38 39 40 40 41 42 43 44 46 48 50 51 52 54 55 56 57 57 57 57 55 54 53 52 51 51 52 52 53 53 54 54 53 53 52 52 52 53 54 56 58 61 63 65 67 69 72
226 226 224 215 207 209 226 239 282 7 13 8 5 6 10 14 16 17 20 26 35 41 41 35 30 31 36 41 44 45 44 44 42 40 39 38 37 37 37 38 39 39 40 40 41 42 43 44 45 47 48 49 50 51 52 53 54 55 56 57 57 57 56 55 55 54 53 53 53 53 53 52 52 51 52 53 53 54 55 56 58 60 62 64 66 68
218 225 228 221 215 217 230 250 288 346 3 2 359 1 8 17 21 20 19 20 24 30 35 33 28 27 29 33 37 41 44 46 46 44 41 39 38 36 36 37 38 39 40 40 41 41 42 43 44 45 45 46 47 47 47 48 49 50 51 53 55 56 58 58 58 57 57 56 55 54 53 53 52 51 50 51 52 54 55 56 57 58 60 61 63 65
213 216 221 219 222 229 237 249 282 324 343 345 349 357 8 18 20 20 19 20 20 21 25 29 29 26 26 29 32 36 39 43 46 48 46 44 41 38 36 36 37 38 39 39 40 41 42 42 43 43 44 45 45 45 45 45 45 46 46 47 49 51 53 56 58 59 59 59 58 57 57 56 55 53 51 50 50 51 53 55 57 58 59 60 61 63
209 212 216 217 223 232 239 252 281 312 327 333 343 353 359 5 12 15 15 16 16 16 17 22 25 24 22 25 28 32 36 39 43 47 50 50 47 43 39 37 36 36 37 37 38 38 39 40 41 41 42 43 43 43 43 43 43 43 43 43 43 44 45 48 51 54 56 58 59 59 59 59 58 56 55 52 50 49 49 51 53 55 57 59 60 62
206 210 216 219 224 233 246 259 278 302 320 326 332 335 334 340 351 1 6 12 14 12 10 12 15 15 15 19 23 27 32 35 39 43 49 51 52 50 46 42 39 38 37 37 37 36 36 36 37 38 39 40 41 41 41 41 41 41 41 41 41 40 40 41 42 44 47 50 53 56 57 58 59 58 57 56 54 52 50 48 49 51 53 55 57 59
201 207 215 220 227 240 255 265 278 291 306 315 319 315 308 310 319 332 346 358 5 9 7 2 1 3 5 12 16 20 25 32 36 40 45 49 52 53 53 49 45 43 41 40 39 38 36 35 35 35 36 37 39 39 39 38 38 38 39 39 40 39 39 38 37 38 39 40 43 45 48 51 53 55 56 57 58 57 55 51 49 49 49 50 52 53
202 202 209 214 219 230 240 247 260 277 289 296 303 308 312 308 303 305 317 337 352 1 8 1 352 352 358 9 13 16 21 29 36 39 44 49 54 56 56 55 53 50 48 46 45 42 40 37 36 34 34 35 36 37 37 36 36 36 36 36 37 38 38 37 37 36 36 36 36 37 38 40 43 45 48 51 54 56 57 57 54 52 50 49 50 51
213 208 210 214 218 221 227 223 225 252 276 286 296 300 308 313 313 308 303 315 338 350 0 2 356 352 354 5 13 17 21 26 32 38 43 49 56 59 58 56 56 55 54 52 50 47 44 42 40 38 36 35 35 35 36 35 35 34 34 34 35 35 36 36 36 36 36 36 36 35 35 35 36 37 39 41 43 46 50 54 56 56 55 53 51 51
220 218 217 220 223 228 233 233 235 249 271 288 295 291 287 293 308 314 310 316 329 341 349 353 355 355 353 357 4 11 16 16 22 31 40 47 55 59 57 53 53 54 54 54 52 50 46 44 44 42 40 38 36 36 35 35 35 34 33 33 33 33 34 34 35 35 36 36 36 36 36 36 35 35 35 35 35 37 39 42 47 51 54 54 52 51
221 222 224 226 229 232 236 241 251 260 272 277 269 254 241 244 278 303 311 316 325 334 337 340 344 349 351 354 357 3 8 2 6 17 28 37 48 53 51 44 42 45 47 48 49 48 44 41 40 42 41 39 37 35 34 34 34 34 34 33 33 33 33 34 34 34 34 35 35 36 37 37 37 37 36 35 34 34 34 35 37 40 44 47 50 50
222 223 227 234 236 236 235 239 243 246 244 240 242 241 228 228 250 282 292 302 314 325 326 323 327 335 340 345 358 7 1 351 354 5 18 28 35 40 40 31 29 33 36 39 42 43 41 35 33 34 36 36 35 32 31 29 30 30 31 31 32 32 33 34 34 34 34 34 34 35 35 36 37 38 38 37 36 35 34 33 33 34 37 41 44 46
224 223 228 234 238 237 234 233 235 237 234 232 237 245 250 254 260 270 277 282 294 311 318 307 301 312 324 329 338 0 2 342 340 350 7 20 28 32 33 21 19 25 27 32 35 38 39 34 29 27 27 28 28 27 25 22 21 21 22 23 25 27 29 31 32 33 33 33 33 33 33 33 34 35 36 37 37 36 35 33 32 32 34 37 41 45
223 221 226 232 235 234 231 233 240 247 251 252 255 256 256 256 255 258 268 278 291 305 308 299 288 284 298 310 317 328 0 341 330 331 348 1 13 24 27 15 12 17 22 30 31 34 38 34 27 21 20 19 19 19 17 15 13 12 11 11 12 14 17 19 21 23 25 25 25 25 25 25 26 27 29 30 31 32 32 31 30 30 30 33 38 44
225 222 227 234 237 236 231 231 242 255 264 265 262 260 258 253 249 255 269 283 294 300 302 299 294 283 272 299 308 309 315 336 326 320 332 343 351 6 20 18 11 8 16 23 26 27 31 31 24 16 13 11 9 7 7 7 5 3 3 2 2 3 4 5 7 9 10 11 11 11 12 13 14 15 16 17 19 20 22 23 24 23 24 27 32 39
229 227 232 240 246 244 234 238 243 251 262 266 266 262 256 255 257 265 276 285 291 293 293 295 296 292 281 291 305 304 294 313 322 317 317 329 334 344 3 18 10 359 5 11 17 21 23 25 20 11 4 359 357 356 357 356 355 354 354 354 354 355 355 356 357 358 359 359 359 360 1 1 2 2 3 3 5 6 8 9 11 12 13 15 18 24
234 232 236 247 255 255 243 240 243 250 258 265 269 269 265 264 267 271 275 279 282 284 285 284 284 284 290 293 309 306 291 297 314 314 308 315 322 330 344 4 4 353 353 356 3 10 16 19 15 5 352 346 344 344 345 345 345 344 343 343 344 345 346 347 349 350 352 352 352 352 352 351 352 352 352 353 354 355 356 358 360 1 4 6 7 7
238 235 238 248 256 259 246 236 238 251 268 281 285 281 277 277 278 278 275 276 277 279 281 280 277 275 279 291 301 296 287 289 306 310 301 306 314 320 329 356 356 340 336 333 339 350 3 6 360 349 341 337 335 334 334 334 334 333 333 332 332 333 334 335 337 340 342 344 345 345 344 344 344 344 345 346 347 349 350 352 353 355 358 1 5 7
245 239 238 246 253 253 238 224 223 245 264 275 284 290 290 290 291 288 283 283 282 281 278 275 274 274 278 295 296 286 279 283 299 304 297 299 305 309 313 337 339 325 325 316 317 325 337 341 338 336 335 334 333 331 329 328 327 326 325 324 324 324 325 326 327 329 331 333 335 336 337 338 339 340 341 342 344 346 347 348 349 350 350 351 355 359
256 251 240 232 239 247 242 215 204 234 251 274 292 298 297 301 303 302 303 303 300 292 284 275 276 280 279 287 287 280 271 277 299 307 299 295 295 298 303 313 319 318 313 307 307 310 316 316 314 316 323 330 332 329 326 325 323 322 321 320 320 320 321 321 321 321 322 324 326 327 329 332 334 337 338 340 341 341 342 342 343 342 339 336 334 333
267 258 224 206 203 196 96 73 179 225 252 290 306 309 312 316 316 317 321 322 317 310 300 292 280 270 262 263 271 273 269 270 278 294 301 294 290 293 298 302 308 312 305 303 301 301 305 304 302 302 307 316 320 321 320 320 320 319 319 318 318 319 319 319 319 318 318 318 319 320 322 325 328 331 333 335 336 336 335 334 333 331 326 321 314 307
315 104 148 164 159 143 124 135 180 231 268 270 276 295 310 309 312 317 322 317 309 300 290 281 280 279 278 278 280 280 276 271 271 278 292 289 291 296 299 301 305 306 299 299 296 296 301 299 296 295 297 301 307 311 312 313 315 316 316 317 318 319 319 319 318 317 316 315 315 316 318 320 322 324 324 325 326 326 325 324 322 319 315 309 303 298
69 83 96 106 115 122 120 113 76 323 310 299 288 285 290 295 301 304 303 300 298 295 293 296 297 297 296 296 297 295 288 277 274 279 286 284 289 298 302 303 304 302 299 296 294 295 299 298 295 293 292 292 294 298 303 306 309 310 313 315 317 318 318 318 317 316 314 311 310 311 312 313 315 315 316 316 316 315 315 314 313 311 307 303 298 295
75 79 85 92 95 95 95 87 72 28 7 357 348 341 335 331 325 321 315 312 308 304 304 304 296 286 283 283 287 298 298 287 281 281 286 285 288 295 302 302 303 302 299 298 298 297 297 296 295 294 293 291 291 293 296 300 304 306 309 311 313 315 315 315 315 313 311 308 307 307 306 307 308 308 308 307 307 307 306 307 306 304 301 297 296 295
77 78 79 83 79 71 65 58 47 27 21 13 7 0 355 351 347 340 331 323 318 314 309 298 290 285 284 282 278 286 300 299 293 287 284 289 291 294 301 306 307 305 301 299 299 298 295 290 290 292 293 292 292 293 295 297 300 303 306 308 310 310 310 309 309 308 306 305 304 302 301 301 301 301 300 300 300 300 300 301 301 299 296 294 295 296
35 38 43 52 54 49 37 18 3 356 358 2 2 0 359 1 355 342 330 335 335 326 311 302 297 295 294 288 283 289 303 308 304 296 289 293 292 291 300 312 316 313 307 301 297 293 288 282 280 282 286 290 295 297 297 297 299 302 305 307 307 306 305 303 302 302 301 300 298 297 295 295 294 293 293 293 293 294 295 296 296 295 294 295 297 299
14 12 9 10 11 4 350 342 340 341 342 346 350 356 5 18 17 7 359 354 347 332 312 302 300 300 300 298 300 303 302 305 300 294 291 300 293 286 299 314 320 320 316 306 299 294 287 277 271 272 276 285 294 301 302 301 302 305 306 308 307 305 303 300 298 297 296 293 291 289 287 286 285 285 285 286 287 289 291 293 293 294 296 300 303 303
352 340 323 318 313 311 315 319 325 330 334 337 343 351 9 34 48 40 17 2 353 341 320 309 305 304 304 305 306 302 294 294 290 290 293 304 293 285 301 316 323 325 324 314 304 295 283 271 265 264 267 276 287 298 304 307 309 311 311 310 309 306 303 300 298 295 293 288 284 281 279 277 276 277 277 279 281 284 287 291 293 296 301 304 305 304
288 276 270 273 279 290 299 308 316 322 328 332 338 349 4 36 62 59 31 16 7 355 338 328 323 319 316 312 306 298 288 293 293 296 306 309 296 293 308 318 324 329 332 326 312 293 274 265 261 259 264 272 281 290 299 308 312 313 313 312 312 309 305 301 298 296 292 286 281 277 276 275 274 274 274 275 276 277 282 288 294 298 299 299 299 299
287 280 276 273 276 282 289 297 308 317 324 331 338 349 4 27 52 61 46 35 24 9 353 343 337 335 332 323 311 302 313 7 320 309 319 318 302 298 312 317 318 322 329 335 328 308 300 287 272 269 275 279 283 288 294 299 304 307 310 313 314 311 305 301 298 296 291 286 280 278 277 277 278 277 276 274 271 270 275 283 290 292 293 294 294 295
283 276 270 270 272 272 270 274 284 300 314 330 344 355 4 17 30 40 44 38 28 16 2 348 340 335 332 321 308 302 313 342 324 314 319 316 303 300 307 309 307 310 316 317 305 296 305 309 316 316 306 295 289 289 291 292 295 299 305 311 313 311 306 302 299 295 291 285 281 279 279 280 281 281 279 274 268 264 267 272 277 283 287 291 292 292
282 273 266 263 258 250 235 230 226 231 252 312 356 4 7 11 13 18 20 18 12 7 1 350 337 330 323 314 304 298 302 312 311 310 313 314 307 301 304 303 301 301 302 297 284 275 277 287 300 307 305 299 294 292 292 291 290 294 301 309 312 310 306 302 298 293 289 284 282 280 280 281 282 282 280 275 267 260 257 258 260 264 274 282 287 289
289 278 269 261 252 241 228 221 217 218 225 253 338 356 3 5 6 6 5 2 355 348 343 336 326 320 318 312 305 301 300 309 311 310 312 314 309 302 303 301 299 298 299 295 287 279 274 279 288 297 301 300 297 293 292 291 290 295 303 309 311 309 305 300 292 287 285 284 282 281 280 280 279 280 279 275 267 259 255 254 253 252 255 263 273 282
298 287 276 265 256 248 243 245 251 261 280 295 309 324 337 346 350 353 354 353 348 339 328 316 301 292 293 297 300 300 302 315 318 314 312 312 308 302 301 298 297 297 298 295 294 292 287 287 290 296 301 302 299 295 292 293 299 306 312 315 313 308 300 294 287 283 281 282 283 282 280 278 276 275 273 271 267 263 260 260 259 257 255 254 255 262
293 284 277 269 263 258 256 264 275 288 297 305 312 319 326 330 334 337 339 340 337 330 318 307 294 283 274 271 274 281 291 304 308 307 306 305 303 300 297 294 294 296 295 294 294 295 295 296 297 298 298 297 298 298 299 302 308 313 316 315 310 301 293 288 282 277 277 279 281 282 280 278 274 270 268 266 265 265 265 265 264 263 261 257 252 249
286 278 273 270 268 268 268 277 283 290 301 311 315 319 323 326 327 328 328 328 324 317 306 295 286 278 273 270 267 269 277 285 290 294 297 298 297 293 289 290 292 293 290 290 292 295 297 298 299 298 294 290 292 300 307 311 312 310 308 305 301 296 291 288 282 275 271 271 274 277 278 277 274 270 266 264 264 265 265 264 264 262 260 258 254 250
282 278 275 275 276 277 282 288 293 298 305 313 318 320 322 322 322 322 322 320 316 310 301 292 283 275 269 267 267 270 274 279 283 287 291 291 289 286 283 286 288 287 283 283 286 290 294 295 296 297 296 293 294 299 305 310 311 310 307 305 300 294 289 290 287 281 274 269 268 269 271 272 271 270 268 267 265 264 263 262 260 258 256 255 254 253
281 278 277 279 284 291 295 298 301 305 310 313 316 318 319 319 318 318 317 316 314 310 304 297 290 282 274 269 268 270 274 277 281 284 285 283 280 277 276 280 284 285 282 280 280 282 283 284 285 289 295 298 300 303 305 307 308 309 311 310 304 293 287 290 293 290 281 274 270 270 271 273 273 274 274 271 266 262 260 258 256 254 253 254 255 256
287 283 282 284 289 293 297 299 303 307 311 314 316 318 317 316 316 316 317 316 315 312 309 305 300 294 287 281 276 274 275 276 278 279 278 275 272 270 269 273 279 284 285 283 280 278 276 275 276 279 284 290 296 300 303 303 303 306 311 311 307 301 296 293 290 285 279 276 275 276 277 277 278 278 277 275 269 264 260 257 256 255 255 258 262 266
295 291 290 293 297 301 303 305 307 309 311 313 314 313 312 313 315 317 318 317 314 311 309 309 306 302 298 294 290 285 280 276 274 272 269 266 265 264 264 268 274 279 283 282 279 275 271 271 272 275 278 282 288 292 294 295 297 300 302 301 299 299 299 294 285 279 278 280 279 277 279 281 281 279 275 273 270 266 262 261 263 265 266 268 270 273
298 298 298 300 303 305 307 309 310 310 310 311 310 306 304 306 311 314 315 312 307 304 305 305 305 304 302 299 296 291 286 280 274 266 260 256 256 258 261 265 270 274 277 277 275 271 266 266 267 270 274 279 284 288 290 291 294 295 294 293 296 299 299 291 281 280 288 294 295 292 289 287 284 281 277 273 271 269 267 266 268 271 275 277 276 274
300 300 302 302 303 305 307 308 308 307 307 307 303 299 297 299 303 307 308 306 302 300 300 301 303 303 302 299 296 293 290 287 280 268 258 253 252 256 260 264 266 268 269 270 271 269 266 263 262 265 269 274 278 282 285 289 292 292 290 290 293 297 297 292 287 290 296 298 297 295 293 291 288 286 283 279 277 276 276 277 276 276 276 277 277 276
299 299 299 299 300 302 304 304 302 301 300 299 296 293 293 294 297 301 303 300 298 295 294 296 300 300 296 293 291 292 290 288 284 276 264 257 256 257 260 262 263 263 262 262 264 267 267 265 263 264 266 270 273 276 280 284 287 288 288 287 286 283 281 284 291 295 295 293 290 289 289 293 297 297 295 292 289 286 284 282 281 281 280 280 278 277
291 295 296 296 298 298 296 294 293 293 292 292 292 291 291 292 295 297 296 294 292 289 287 291 296 296 290 288 289 290 291 286 279 271 265 261 259 259 258 259 259 259 257 256 258 261 266 267 268 269 270 271 271 273 276 279 282 284 284 284 282 277 274 277 282 286 287 286 286 286 287 298 304 306 306 302 295 289 284 281 280 279 279 279 278 277
288 291 293 293 293 291 288 288 288 289 289 290 291 290 289 290 292 294 292 287 284 282 282 285 286 284 284 286 288 290 290 287 280 269 258 255 257 258 257 256 256 257 257 256 256 258 260 263 267 272 275 274 272 270 270 272 275 278 280 281 281 279 277 276 275 275 276 278 279 282 290 303 310 312 308 300 292 287 284 282 280 278 277 277 276 275
289 289 290 291 292 292 291 289 287 286 287 288 288 288 287 287 289 289 286 281 276 276 279 279 276 273 274 278 281 283 284 284 283 278 269 258 253 254 257 259 259 259 260 260 260 260 260 261 263 266 269 271 272 271 269 268 269 271 275 278 280 280 278 276 274 273 271 272 274 281 294 306 309 305 296 293 293 291 288 285 282 280 278 277 276 275
287 289 290 292 293 293 292 290 287 284 284 286 286 285 283 283 284 283 279 275 273 275 277 276 274 272 271 271 272 273 275 278 280 281 280 276 267 260 259 262 264 264 263 264 264 264 263 263 263 261 259 259 262 267 269 269 268 268 271 275 277 278 278 278 277 276 273 271 277 287 296 300 298 294 294 294 294 291 289 286 283 280 278 275 273 272
291 291 292 292 292 291 290 289 286 283 282 283 283 281 277 276 274 272 270 271 273 277 279 279 279 278 276 274 271 271 271 271 273 275 275 274 272 269 266 264 263 263 263 263 264 264 264 265 264 261 255 250 250 256 263 268 269 269 271 272 273 275 278 280 282 281 279 278 282 290 297 296 291 287 290 290 288 287 286 285 282 279 277 273 270 268
292 291 291 289 288 286 286 286 285 283 282 281 279 276 272 268 264 262 263 267 273 277 280 281 281 281 280 278 276 274 273 272 271 270 268 266 264 265 266 264 263 263 263 265 265 264 264 263 262 260 255 249 245 244 250 260 268 271 271 271 271 273 276 280 283 284 284 285 286 289 292 292 289 287 284 280 280 282 283 283 281 279 277 274 272 269
291 290 289 287 285 284 283 282 281 279 277 275 274 273 271 269 266 264 266 272 277 280 280 280 280 278 278 278 278 276 274 273 273 273 272 271 270 268 266 266 266 268 271 272 273 273 275 273 264 255 249 246 243 239 239 248 261 271 274 273 273 273 276 279 282 284 285 285 286 286 287 286 284 280 276 272 273 277 279 279 279 279 278 277 276 275